Location: D�rnast
(49.6426°N, 11.9755°E)
Time: 23:27:55
(UTC+00:00)

ISS - Pass Details

Date: 03 December 2021
Orbit: 413 x 422 km, 51.6° (Epoch: 25 January)

Event Time Altitude Azimuth Distance (km) Brightness Sun altitude
Rises 17:34:56 0° 288° (WNW) 2,387 1.1 -21.9°
Reaches altitude 10° 17:37:06 10° 283° (WNW) 1,517 0.0 -22.3°
Enters shadow 17:40:10 46° 222° (SW) 575 -2.8 -22.8°
